Weather History for Franklin, VA

Change the Weather History Date:

Sunday, December 4, 2011

  Actual Average (KSFQ) Record (KSFQ)
Temperature  
Mean Temperature 49 °F -  
Max Temperature 66 °F 55 °F 79 °F (1978)
Min Temperature 32 °F 35 °F 19 °F (1976)
Degree Days  
Heating Degree Days 16    
Moisture  
Dew Point 45 °F    
Average Humidity 90    
Maximum Humidity 100    
Minimum Humidity 64    
Precipitation  
Precipitation 0.00 in - - ()
Sea Level Pressure  
Sea Level Pressure 30.48 in    
Wind  
Wind Speed 0 mph (SSE)    
Max Wind Speed 5 mph    
Max Gust Speed -    
Visibility 7 miles    
Events      
Averages and records for this station are not official NWS values.
T = Trace of Precipitation, MM = Missing Value Source: NWS Daily Summary

Daily Weather History Graph

Daily Weather History Graph

Search for Another Location

Airport:

Trip Planner

Search our weather history database for the weather conditions in past years. The results will help you decide how hot, cold, wet, or windy it might be!

Date:

Astronomy

Dec. 04, 2011 Rise Set
Actual Time 7:03 AM EST 4:51 PM EST
Civil Twilight 6:35 AM EST 5:19 PM EST
Nautical Twilight 6:03 AM EST 5:52 PM EST
Astronomical Twilight 5:31 AM EST 6:23 PM EST
Moon 1:14 PM EST (12/4) 1:34 AM EST (12/4)
Length of Visible Light 10h 44m
Length of Day
9h 47m
Waxing Gibbous, 71% of the Moon is Illuminated
Dec 4
Waxing Gibbous
Dec 10
Full
Dec 17
Last Quarter
Dec 24
New
Jan 1
First Quarter

Hourly Weather History & Observations

Time (EST) Temp. Dew Point Humidity Pressure Visibility Wind Dir Wind Speed Gust Speed Precip Events Conditions
12:15 AM 39.2 °F 39.2 °F 100% 30.57 in 5.0 mi Calm Calm - N/A   Clear
12:35 AM 37.4 °F 37.4 °F 100% 30.56 in 4.0 mi Calm Calm - N/A   Clear
12:55 AM 35.6 °F 35.6 °F 100% 30.55 in 10.0 mi Calm Calm - N/A   Clear
1:15 AM 35.6 °F 35.6 °F 100% 30.55 in 4.0 mi Calm Calm - N/A   Clear
1:35 AM 35.6 °F 35.6 °F 100% 30.54 in 0.5 mi Calm Calm - N/A   Mostly Cloudy
1:55 AM 33.8 °F 33.8 °F 100% 30.54 in 1.8 mi Calm Calm - N/A   Mostly Cloudy
2:15 AM 35.6 °F 35.6 °F 100% 30.54 in 1.0 mi Calm Calm - N/A   Clear
2:35 AM 33.8 °F 33.8 °F 100% 30.54 in 2.5 mi Calm Calm - N/A   Clear
2:55 AM 33.8 °F 33.8 °F 100% 30.53 in 10.0 mi Calm Calm - N/A   Clear
3:35 AM 33.8 °F 33.8 °F 100% 30.53 in 10.0 mi Calm Calm - N/A   Clear
3:55 AM 32.0 °F 32.0 °F 100% 30.53 in 10.0 mi Calm Calm - N/A   Clear
4:15 AM 33.8 °F 33.8 °F 100% 30.52 in 0.8 mi Calm Calm - N/A   Mostly Cloudy
4:35 AM 33.8 °F 33.8 °F 100% 30.52 in 0.2 mi Calm Calm - N/A   Overcast
4:55 AM 33.8 °F 33.8 °F 100% 30.52 in 0.8 mi Calm Calm - N/A   Overcast
5:15 AM 32.0 °F 32.0 °F 100% 30.52 in 0.5 mi Calm Calm - N/A   Overcast
5:35 AM 33.8 °F 33.8 °F 100% 30.52 in 0.5 mi Calm Calm - N/A   Overcast
5:55 AM 33.8 °F 33.8 °F 100% 30.52 in 0.2 mi Calm Calm - N/A   Overcast
6:15 AM 33.8 °F 33.8 °F 100% 30.52 in 0.2 mi Calm Calm - N/A   Overcast
6:35 AM 32.0 °F 32.0 °F 100% 30.52 in 0.2 mi Calm Calm - N/A   Overcast
6:55 AM 33.8 °F 33.8 °F 100% 30.53 in 0.2 mi Calm Calm - N/A   Overcast
7:15 AM 33.8 °F 33.8 °F 100% 30.53 in 0.2 mi Calm Calm - N/A   Overcast
7:35 AM 33.8 °F 33.8 °F 100% 30.53 in 0.2 mi Calm Calm - N/A   Overcast
7:55 AM 33.8 °F 33.8 °F 100% 30.53 in 5.0 mi Calm Calm - N/A   Scattered Clouds
8:15 AM 37.4 °F 37.4 °F 100% 30.53 in 4.0 mi Calm Calm - N/A   Clear
8:35 AM 41.0 °F 41.0 °F 100% 30.53 in 5.0 mi Calm Calm - N/A   Clear
8:55 AM 42.8 °F 42.8 °F 100% 30.53 in 10.0 mi Calm Calm - N/A   Clear
9:15 AM 44.6 °F 44.6 °F 100% 30.53 in 10.0 mi Calm Calm - N/A   Clear
9:35 AM 48.2 °F 48.2 °F 100% 30.53 in 10.0 mi Calm Calm - N/A   Clear
9:55 AM 50.0 °F 50.0 °F 100% 30.52 in 10.0 mi Calm Calm - N/A   Clear
10:15 AM 53.6 °F 51.8 °F 94% 30.53 in 10.0 mi Calm Calm - N/A   Clear
10:35 AM 55.4 °F 51.8 °F 88% 30.53 in 10.0 mi Calm Calm - N/A   Clear
11:15 AM 62.6 °F 53.6 °F 72% 30.50 in 10.0 mi East 3.5 mph - N/A   Clear
11:35 AM 62.6 °F 53.6 °F 72% 30.49 in 10.0 mi Calm Calm - N/A   Clear
11:55 AM 62.6 °F 53.6 °F 72% 30.48 in 10.0 mi Calm Calm - N/A   Clear
12:15 PM 62.6 °F 53.6 °F 72% 30.47 in 10.0 mi Calm Calm - N/A   Clear
12:35 PM 64.4 °F 51.8 °F 64% 30.45 in 10.0 mi Calm Calm - N/A   Clear
12:55 PM 64.4 °F 53.6 °F 68% 30.44 in 10.0 mi Calm Calm - N/A   Clear
1:15 PM 66.2 °F 53.6 °F 64% 30.43 in 10.0 mi Calm Calm - N/A   Clear
1:35 PM 66.2 °F 53.6 °F 64% 30.43 in 10.0 mi Calm Calm - N/A   Clear
1:55 PM 66.2 °F 53.6 °F 64% 30.42 in 10.0 mi SSE 4.6 mph - N/A   Scattered Clouds
2:15 PM 66.2 °F 53.6 °F 64% 30.42 in 10.0 mi South 4.6 mph - N/A   Scattered Clouds
2:35 PM 66.2 °F 53.6 °F 64% 30.41 in 10.0 mi Calm Calm - N/A   Clear
2:55 PM 66.2 °F 53.6 °F 64% 30.41 in 10.0 mi Calm Calm - N/A   Clear
3:15 PM 66.2 °F 53.6 °F 64% 30.40 in 10.0 mi South 3.5 mph - N/A   Clear
3:35 PM 66.2 °F 53.6 °F 64% 30.40 in 10.0 mi SSW 4.6 mph - N/A   Clear
3:55 PM 62.6 °F 53.6 °F 72% 30.40 in 10.0 mi Calm Calm - N/A   Scattered Clouds
4:15 PM 64.4 °F 53.6 °F 68% 30.40 in 10.0 mi Calm Calm - N/A   Scattered Clouds
4:35 PM 62.6 °F 55.4 °F 77% 30.40 in 10.0 mi Calm Calm - N/A   Scattered Clouds
4:55 PM 60.8 °F 55.4 °F 82% 30.40 in 10.0 mi Calm Calm - N/A   Mostly Cloudy
5:15 PM 57.2 °F 55.4 °F 94% 30.40 in 10.0 mi Calm Calm - N/A   Scattered Clouds
5:35 PM 55.4 °F 53.6 °F 94% 30.41 in 10.0 mi Calm Calm - N/A   Scattered Clouds
5:55 PM 53.6 °F 53.6 °F 100% 30.41 in 10.0 mi East 3.5 mph - N/A   Scattered Clouds
6:15 PM 53.6 °F 53.6 °F 100% 30.41 in 10.0 mi Calm Calm - N/A   Scattered Clouds
6:35 PM 53.6 °F 51.8 °F 94% 30.41 in 10.0 mi Calm Calm - N/A   Clear
7:15 PM 51.8 °F 51.8 °F 100% 30.41 in 10.0 mi Calm Calm - N/A   Clear
7:35 PM 50.0 °F 50.0 °F 100% 30.41 in 7.0 mi Calm Calm - N/A   Scattered Clouds
7:55 PM 51.8 °F 51.8 °F 100% 30.41 in 10.0 mi Calm Calm - N/A   Mostly Cloudy
8:15 PM 51.8 °F 51.8 °F 100% 30.42 in 10.0 mi Calm Calm - N/A   Mostly Cloudy
8:35 PM 48.2 °F 48.2 °F 100% 30.41 in 2.5 mi Calm Calm - N/A   Scattered Clouds
8:55 PM 48.2 °F 48.2 °F 100% 30.42 in 3.0 mi Calm Calm - N/A   Clear
9:15 PM 48.2 °F 48.2 °F 100% 30.41 in 1.0 mi Calm Calm - N/A   Clear
9:35 PM 46.4 °F 46.4 °F 100% 30.41 in 2.0 mi Calm Calm - N/A   Mostly Cloudy
9:55 PM 46.4 °F 46.4 °F 100% 30.41 in 2.5 mi Calm Calm - N/A   Scattered Clouds
10:15 PM 46.4 °F 46.4 °F 100% 30.41 in 2.0 mi Calm Calm - N/A   Mostly Cloudy
10:35 PM 46.4 °F 46.4 °F 100% 30.40 in 0.2 mi Calm Calm - N/A   Overcast
10:55 PM 44.6 °F 44.6 °F 100% 30.40 in 0.2 mi Calm Calm - N/A   Overcast
11:15 PM 44.6 °F 44.6 °F 100% 30.41 in 0.2 mi Calm Calm - N/A   Overcast
11:35 PM 42.8 °F 42.8 °F 100% 30.41 in 0.2 mi Calm Calm - N/A   Overcast